CW4221 Weather Reports


time (UTC)temp
C
wind
direction
speed
KPH
gust
KPH
rain 1hr
cm
rain 24hr
cm
rain mn
cm
humidity
%
barometer
mb
20210723153847 27 269 4.8 14.5 0.00 0.00 0.00 78 1021.7
20210723153343 27 222 6.4 14.5 0.00 0.00 0.00 76 1021.8
20210723152838 27 217 3.2 12.9 0.00 0.00 0.00 79 1021.7
20210723152352 27 242 6.4 12.9 0.00 0.00 0.00 80 1021.8
20210723151851 27 215 3.2 11.3 0.00 0.00 0.00 80 1021.8
20210723151346 27 228 4.8 11.3 0.00 0.00 0.00 81 1021.8
20210723150841 26 232 6.4 9.7 0.00 0.00 0.00 82 1021.9
20210723150336 26 220 4.8 12.9 0.00 0.00 0.00 83 1021.9
20210723145849 26 205 6.4 12.9 0.00 0.00 0.00 82 1021.9
20210723145345 26 240 3.2 11.3 0.00 0.00 0.00 84 1021.9
20210723144839 26 219 6.4 11.3 0.00 0.00 0.00 85 1021.9
20210723144338 26 248 4.8 11.3 0.00 0.00 0.00 84 1022.0
20210723143853 26 163 6.4 9.7 0.00 0.00 0.00 85 1022.0
20210723143349 26 203 4.8 9.7 0.00 0.00 0.00 86 1022.0
20210723142842 25 230 4.8 9.7 0.00 0.00 0.00 87 1022.0
20210723142337 25 180 4.8 8.0 0.00 0.00 0.00 89 1022.1
20210723141851 25 205 4.8 9.7 0.00 0.00 0.00 88 1022.0
20210723141345 25 213 4.8 12.9 0.00 0.00 0.00 89 1022.0
20210723140839 25 229 6.4 12.9 0.00 0.00 0.00 89 1022.2
20210723140338 25 229 3.2 9.7 0.00 0.00 0.00 89 1022.2
20210723135852 24 215 3.2 11.3 0.00 0.00 0.00 90 1022.1
20210723135346 24 202 4.8 11.3 0.00 0.00 0.00 90 1022.0
20210723134841 24 223 4.8 9.7 0.00 0.00 0.00 91 1022.0
20210723134354 24 200 6.4 9.7 0.00 0.00 0.00 91 1021.9
20210723133846 23 225 4.8 9.7 0.00 0.00 0.00 92 1021.9
20210723133341 23 212 4.8 8.0 0.00 0.00 0.00 92 1021.9
20210723132839 23 220 3.2 6.4 0.00 0.00 0.00 92 1021.7
20210723132352 23 177 0.0 6.4 0.00 0.00 0.00 93 1021.8
20210723131849 23 215 1.6 6.4 0.00 0.00 0.00 94 1021.7
20210723131343 23 198 3.2 6.4 0.00 0.00 0.00 94 1021.7
20210723130839 22 197 3.2 6.4 0.00 0.00 0.00 95 1021.7
20210723130335 22 145 1.6 6.4 0.00 0.00 0.00 95 1021.7
20210723125850 22 215 3.2 8.0 0.00 0.00 0.00 95 1021.7
20210723125345 22 119 1.6 8.0 0.00 0.00 0.00 96 1021.6
20210723124843 22 111 0.0 3.2 0.00 0.00 0.00 96 1021.6
20210723124338 22 111 0.0 3.2 0.00 0.00 0.00 96 1021.5
20210723123852 21 111 0.0 3.2 0.00 0.00 0.00 96 1021.5
20210723123345 21 111 0.0 3.2 0.00 0.00 0.00 96 1021.5
20210723122839 21 111 0.0 1.6 0.00 0.00 0.00 96 1021.4
20210723122354 21 111 0.0 0.0 0.00 0.00 0.00 96 1021.4
20210723121849 21 111 0.0 0.0 0.00 0.00 0.00 96 1021.4
20210723121341 21 111 0.0 0.0 0.00 0.00 0.00 96 1021.4
20210723120853 20 111 0.0 0.0 0.00 0.00 0.00 96 1021.4
20210723120349 20 111 0.0 0.0 0.00 0.00 0.00 96 1021.4
20210723115841 20 111 0.0 0.0 0.00 0.03 0.00 96 1021.5
20210723115336 20 111 0.0 0.0 0.00 0.03 0.00 96 1021.5
20210723114852 20 111 0.0 0.0 0.00 0.03 0.00 96 1021.5
20210723114347 20 111 0.0 0.0 0.00 0.03 0.00 96 1021.4
20210723113842 20 111 0.0 0.0 0.00 0.03 0.00 96 1021.4
20210723113341 20 111 0.0 0.0 0.00 0.03 0.00 95 1021.3
20210723112837 20 111 0.0 0.0 0.00 0.03 0.00 96 1021.3
20210723112352 20 111 0.0 0.0 0.00 0.03 0.00 96 1021.3
20210723111848 20 111 0.0 0.0 0.00 0.03 0.00 96 1021.2
20210723111343 20 111 0.0 0.0 0.00 0.03 0.00 96 1021.2
20210723110838 20 111 0.0 0.0 0.00 0.03 0.00 95 1021.2
20210723110353 20 111 0.0 0.0 0.00 0.03 0.00 95 1021.2
20210723105851 20 111 0.0 0.0 0.00 0.03 0.00 95 1021.2
20210723105346 20 111 0.0 0.0 0.00 0.03 0.00 95 1021.2
20210723104839 20 111 0.0 0.0 0.00 0.03 0.00 95 1021.1
20210723104354 20 111 0.0 0.0 0.00 0.03 0.00 96 1021.1
20210723103848 20 111 0.0 0.0 0.00 0.03 0.00 95 1021.0
20210723103343 20 111 0.0 0.0 0.00 0.03 0.00 95 1021.0
20210723102838 20 111 0.0 0.0 0.00 0.03 0.00 95 1021.0
20210723102337 20 111 0.0 0.0 0.00 0.03 0.00 95 1021.0
20210723101852 20 111 0.0 0.0 0.00 0.03 0.00 95 1021.0
20210723101346 20 111 0.0 0.0 0.00 0.03 0.00 94 1020.9
20210723100841 20 111 0.0 0.0 0.00 0.03 0.00 94 1020.9
20210723100335 21 111 0.0 0.0 0.00 0.03 0.00 95 1021.0
20210723095849 21 111 0.0 0.0 0.00 0.03 0.00 95 1021.0
20210723095343 21 111 0.0 0.0 0.00 0.03 0.00 95 1021.1
20210723094838 21 111 0.0 0.0 0.00 0.03 0.00 95 1021.1
20210723094336 21 111 0.0 0.0 0.00 0.03 0.00 95 1021.1
20210723093852 21 111 0.0 0.0 0.00 0.03 0.00 95 1021.1
20210723093348 21 111 0.0 0.0 0.00 0.03 0.00 95 1021.2
20210723092843 21 111 0.0 0.0 0.00 0.03 0.00 95 1021.1
20210723092339 21 111 0.0 0.0 0.00 0.03 0.00 95 1021.2
20210723091834 21 111 0.0 0.0 0.00 0.03 0.00 95 1021.2
20210723091350 21 111 0.0 0.0 0.00 0.03 0.00 94 1021.1
20210723090849 21 111 0.0 0.0 0.00 0.03 0.00 94 1021.1
20210723090343 21 111 0.0 0.0 0.00 0.03 0.00 94 1021.1
20210723085837 21 111 0.0 0.0 0.00 0.03 0.00 94 1021.1
20210723085351 21 111 0.0 0.0 0.00 0.03 0.00 94 1021.1
20210723084846 21 111 0.0 0.0 0.00 0.03 0.00 94 1021.1
20210723084342 21 111 0.0 0.0 0.00 0.03 0.00 94 1021.1
20210723083837 21 111 0.0 0.0 0.00 0.03 0.00 94 1021.1
20210723083336 21 111 0.0 0.0 0.00 0.03 0.00 94 1021.1
20210723082853 21 111 0.0 0.0 0.00 0.03 0.00 94 1021.1
20210723082348 21 111 0.0 0.0 0.00 0.03 0.00 94 1021.1
20210723081843 21 111 0.0 0.0 0.00 0.03 0.00 94 1021.2
20210723081337 21 111 0.0 0.0 0.00 0.03 0.00 94 1021.2
20210723080852 21 111 0.0 0.0 0.00 0.03 0.00 94 1021.2
20210723080346 21 111 0.0 0.0 0.00 0.03 0.00 94 1021.3
20210723075840 21 111 0.0 0.0 0.00 0.03 0.00 94 1021.3
20210723075337 21 111 0.0 0.0 0.00 0.03 0.00 94 1021.3
20210723074852 21 111 0.0 0.0 0.00 0.03 0.00 94 1021.3
20210723074348 21 111 0.0 0.0 0.00 0.03 0.00 94 1021.3
20210723073843 21 111 0.0 0.0 0.00 0.03 0.00 94 1021.3
20210723073339 21 111 0.0 0.0 0.00 0.03 0.00 93 1021.3
20210723072834 21 111 0.0 0.0 0.00 0.03 0.00 93 1021.3
20210723072350 21 111 0.0 0.0 0.00 0.03 0.00 94 1021.3
20210723071850 21 111 0.0 0.0 0.00 0.03 0.00 94 1021.3
20210723071344 21 111 0.0 0.0 0.00 0.03 0.00 94 1021.3
20210723070838 21 111 0.0 0.0 0.00 0.03 0.00 94 1021.3
20210723070354 21 111 0.0 0.0 0.00 0.03 0.00 94 1021.3
20210723065845 21 111 0.0 0.0 0.00 0.03 0.00 94 1021.3
20210723065339 21 111 0.0 0.0 0.00 0.03 0.00 94 1021.3
20210723064852 21 111 0.0 0.0 0.00 0.03 0.00 94 1021.3
20210723064345 21 111 0.0 0.0 0.00 0.03 0.00 94 1021.3
20210723063845 21 111 0.0 0.0 0.00 0.03 0.00 94 1021.2
20210723063341 21 111 0.0 0.0 0.00 0.03 0.00 94 1021.3
20210723062836 21 111 0.0 0.0 0.00 0.03 0.00 94 1021.3
20210723062351 21 111 0.0 0.0 0.00 0.03 0.00 94 1021.4
20210723061845 21 111 0.0 0.0 0.00 0.03 0.00 94 1021.4
20210723061340 21 111 0.0 0.0 0.00 0.03 0.00 94 1021.4
20210723060834 21 111 0.0 0.0 0.00 0.03 0.00 94 1021.4
20210723060353 21 111 0.0 0.0 0.00 0.03 0.00 93 1021.4
20210723055847 21 111 0.0 0.0 0.00 0.03 0.00 93 1021.4
20210723055341 21 111 0.0 0.0 0.00 0.03 0.00 93 1021.5
20210723054836 21 111 0.0 0.0 0.00 0.03 0.00 93 1021.4
20210723054350 21 111 0.0 0.0 0.00 0.03 0.00 93 1021.4
20210723053845 21 111 0.0 0.0 0.00 0.03 0.00 93 1021.5
20210723053341 21 111 0.0 0.0 0.00 0.03 0.00 92 1021.5
20210723052841 21 111 0.0 0.0 0.00 0.03 0.00 92 1021.6
20210723052335 21 111 0.0 0.0 0.00 0.03 0.00 92 1021.5
20210723051850 22 111 0.0 0.0 0.00 0.03 0.00 92 1021.5
20210723051346 22 111 0.0 0.0 0.00 0.03 0.00 91 1021.5
20210723050841 22 111 0.0 0.0 0.00 0.03 0.00 91 1021.4
20210723050336 22 111 0.0 0.0 0.00 0.03 0.00 91 1021.4
20210723045849 22 111 0.0 0.0 0.00 0.03 0.03 90 1021.4
20210723045342 22 111 0.0 0.0 0.00 0.03 0.03 90 1021.4
20210723044839 22 111 0.0 0.0 0.00 0.03 0.03 90 1021.4
20210723044334 22 111 0.0 1.6 0.00 0.03 0.03 90 1021.3
20210723043850 22 111 0.0 1.6 0.00 0.03 0.03 90 1021.3
20210723043343 22 111 0.0 3.2 0.00 0.03 0.03 90 1021.3
20210723042838 22 111 0.0 3.2 0.00 0.03 0.03 90 1021.3
20210723042353 22 111 0.0 1.6 0.00 0.03 0.03 90 1021.3
20210723041848 22 111 0.0 0.0 0.00 0.03 0.03 89 1021.2
20210723041347 23 111 0.0 3.2 0.00 0.03 0.03 89 1021.2
20210723040842 23 111 0.0 3.2 0.00 0.03 0.03 89 1021.2
20210723040338 23 111 0.0 1.6 0.00 0.03 0.03 89 1021.2
20210723035853 23 111 0.0 1.6 0.00 0.03 0.03 89 1021.3
20210723035348 23 111 0.0 3.2 0.00 0.03 0.03 89 1021.3
20210723034842 23 111 1.6 3.2 0.00 0.03 0.03 89 1021.3
20210723034338 23 111 0.0 1.6 0.00 0.03 0.03 88 1021.3
20210723033837 23 111 0.0 3.2 0.00 0.03 0.03 88 1021.2
20210723033350 23 111 1.6 3.2 0.00 0.03 0.03 88 1021.3
20210723032846 23 111 0.0 3.2 0.00 0.03 0.03 88 1021.2
20210723032341 23 111 1.6 3.2 0.00 0.03 0.03 88 1021.2
20210723031837 23 111 0.0 3.2 0.00 0.03 0.03 88 1021.2
20210723031352 23 111 0.0 0.0 0.00 0.03 0.03 88 1021.1
20210723030849 23 111 0.0 1.6 0.00 0.03 0.03 87 1021.1
20210723030344 23 111 0.0 3.2 0.00 0.03 0.03 86 1021.0
20210723025843 23 111 0.0 3.2 0.00 0.03 0.03 86 1020.9
20210723025339 23 111 0.0 0.0 0.00 0.03 0.03 86 1020.8
20210723024834 23 111 0.0 0.0 0.00 0.03 0.03 85 1020.9
20210723024348 23 111 0.0 0.0 0.00 0.03 0.03 85 1020.8
20210723023843 23 111 0.0 0.0 0.00 0.03 0.03 85 1020.8
20210723023338 23 111 0.0 0.0 0.00 0.03 0.03 84 1020.7
20210723022854 23 111 0.0 1.6 0.00 0.03 0.03 84 1020.7
20210723022352 24 111 0.0 1.6 0.00 0.03 0.03 83 1020.6
20210723021848 24 111 0.0 1.6 0.00 0.03 0.03 82 1020.6
20210723021342 24 111 0.0 1.6 0.00 0.03 0.03 82 1020.5
20210723020838 24 111 0.0 1.6 0.00 0.03 0.03 82 1020.5
20210723020352 25 111 0.0 3.2 0.00 0.03 0.03 82 1020.4
20210723015846 25 111 0.0 3.2 0.00 0.03 0.03 82 1020.4
20210723015341 25 111 0.0 1.6 0.00 0.03 0.03 81 1020.4
20210723014838 25 111 0.0 1.6 0.00 0.03 0.03 80 1020.3
20210723014354 25 111 0.0 1.6 0.00 0.03 0.03 79 1020.4
20210723013848 25 111 0.0 3.2 0.00 0.03 0.03 79 1020.4
20210723013344 25 111 0.0 3.2 0.00 0.03 0.03 78 1020.4
20210723012839 25 111 0.0 3.2 0.00 0.03 0.03 78 1020.4
20210723012354 25 111 0.0 1.6 0.00 0.03 0.03 78 1020.4
20210723011847 26 111 0.0 3.2 0.00 0.03 0.03 77 1020.4
20210723011342 26 111 0.0 3.2 0.00 0.03 0.03 76 1020.4
20210723010840 26 111 1.6 3.2 0.00 0.03 0.03 75 1020.3
20210723010336 26 111 1.6 4.8 0.00 0.03 0.03 75 1020.2
20210723005849 26 111 1.6 4.8 0.00 0.03 0.03 74 1020.2
20210723005343 26 111 0.0 4.8 0.00 0.03 0.03 73 1020.2
20210723004838 27 111 1.6 4.8 0.00 0.03 0.03 72 1020.2
20210723004354 27 111 1.6 4.8 0.00 0.03 0.03 72 1020.2
20210723003850 27 111 3.2 6.4 0.00 0.03 0.03 71 1020.2
20210723003349 27 113 3.2 6.4 0.00 0.03 0.03 70 1020.2
20210723002844 27 105 1.6 6.4 0.00 0.03 0.03 71 1020.1
20210723002339 27 123 1.6 6.4 0.00 0.03 0.03 70 1020.0
20210723001833 27 123 1.6 6.4 0.00 0.03 0.03 71 1020.1
20210723001349 27 92 1.6 4.8 0.00 0.03 0.03 70 1020.1
20210723000845 27 92 3.2 4.8 0.00 0.03 0.03 70 1020.2
20210723000341 28 92 1.6 6.4 0.00 0.03 0.03 70 1020.2
20210722235839 28 92 1.6 4.8 0.00 0.03 0.03 68 1020.2
20210722235334 28 92 1.6 6.4 0.00 0.03 0.03 67 1020.3
20210722234850 28 92 3.2 6.4 0.00 0.03 0.03 67 1020.3
20210722234345 28 92 1.6 4.8 0.00 0.03 0.03 68 1020.3
20210722233841 28 92 1.6 4.8 0.00 0.03 0.03 68 1020.3
20210722233335 28 92 0.0 3.2 0.00 0.03 0.03 68 1020.4
20210722232850 28 92 1.6 3.2 0.00 0.03 0.03 67 1020.4
20210722232342 28 92 1.6 3.2 0.00 0.03 0.03 66 1020.5
20210722231842 28 92 0.0 4.8 0.00 0.03 0.03 69 1020.6
20210722231338 28 92 0.0 4.8 0.00 0.03 0.03 67 1020.6
20210722230853 28 92 1.6 4.8 0.00 0.03 0.03 66 1020.6
20210722230348 28 92 1.6 4.8 0.00 0.03 0.03 63 1020.6
20210722225842 28 92 1.6 6.4 0.00 0.03 0.03 62 1020.6
20210722225337 28 93 3.2 6.4 0.00 0.03 0.03 64 1020.6
20210722224849 29 117 3.2 4.8 0.00 0.03 0.03 62 1020.7
20210722224347 29 117 1.6 4.8 0.00 0.03 0.03 61 1020.7
20210722223843 29 145 3.2 4.8 0.00 0.03 0.03 59 1020.7
20210722223337 29 111 0.0 3.2 0.00 0.03 0.03 62 1020.7
20210722222852 29 111 0.0 4.8 0.00 0.03 0.03 66 1020.7
20210722222347 29 111 3.2 4.8 0.00 0.03 0.03 61 1020.7
20210722221843 29 111 1.6 6.4 0.00 0.03 0.03 61 1020.7
20210722221339 29 134 1.6 6.4 0.00 0.03 0.03 58 1020.7
20210722220839 29 98 1.6 6.4 0.00 0.03 0.03 59 1020.8
20210722220336 29 98 3.2 9.7 0.00 0.03 0.03 62 1020.8
20210722215850 30 111 3.2 9.7 0.00 0.03 0.03 60 1020.9
20210722215344 29 160 1.6 8.0 0.00 0.03 0.03 62 1020.8
20210722214838 29 132 4.8 8.0 0.00 0.03 0.03 61 1020.9
20210722214353 29 103 3.2 9.7 0.00 0.03 0.03 63 1020.9
20210722213848 29 105 3.2 9.7 0.00 0.03 0.03 59 1020.9
20210722213343 30 103 3.2 9.7 0.00 0.03 0.03 60 1021.0
20210722212842 30 178 1.6 9.7 0.00 0.03 0.03 56 1021.0
20210722212338 30 113 1.6 4.8 0.00 0.03 0.03 58 1021.1
20210722211834 30 113 1.6 8.0 0.00 0.03 0.03 60 1021.1
20210722211349 30 189 1.6 8.0 0.00 0.03 0.03 60 1021.2
20210722210844 29 150 3.2 8.0 0.00 0.03 0.03 60 1021.2
20210722210339 30 93 4.8 8.0 0.00 0.03 0.03 61 1021.2
20210722205853 30 232 3.2 8.0 0.00 0.03 0.03 58 1021.2
20210722205352 30 242 3.2 8.0 0.00 0.03 0.03 62 1021.3
20210722204847 29 187 3.2 9.7 0.00 0.03 0.03 57 1021.3
20210722204342 30 230 3.2 9.7 0.00 0.03 0.03 57 1021.4
20210722203838 30 101 3.2 6.4 0.00 0.03 0.03 57 1021.4
20210722203353 29 98 1.6 9.7 0.00 0.03 0.03 58 1021.5
20210722202847 29 98 4.8 11.3 0.00 0.03 0.03 56 1021.5
20210722202341 29 95 4.8 11.3 0.00 0.03 0.03 59 1021.5
20210722201838 29 150 3.2 6.4 0.00 0.03 0.03 58 1021.6
20210722201352 29 115 3.2 9.7 0.00 0.03 0.03 60 1021.6
20210722200847 29 100 3.2 9.7 0.00 0.03 0.03 60 1021.7
20210722200342 30 105 3.2 11.3 0.00 0.03 0.03 55 1021.6
20210722195837 29 104 4.8 11.3 0.00 0.03 0.03 56 1021.6
20210722195351 29 213 4.8 9.7 0.00 0.03 0.03 59 1021.7
20210722194845 29 155 4.8 9.7 0.00 0.03 0.03 59 1021.7
20210722194340 29 239 3.2 9.7 0.00 0.03 0.03 64 1021.7
20210722193839 29 205 3.2 8.0 0.00 0.03 0.03 59 1021.7
20210722193334 29 226 4.8 8.0 0.00 0.03 0.03 59 1021.7
20210722192850 29 158 0.0 8.0 0.00 0.03 0.03 63 1021.8
20210722192345 29 158 3.2 8.0 0.00 0.03 0.03 58 1021.9
20210722191839 29 232 1.6 8.0 0.00 0.03 0.03 63 1021.8
20210722191334 29 220 4.8 8.0 0.00 0.03 0.03 60 1021.9
20210722190850 28 224 1.6 8.0 0.00 0.03 0.03 60 1021.9
20210722190350 29 228 4.8 8.0 0.00 0.03 0.03 59 1021.9
20210722185843 28 209 1.6 8.0 0.00 0.03 0.03 63 1021.9
20210722185339 29 221 4.8 8.0 0.00 0.03 0.03 68 1022.0
20210722184835 28 129 3.2 8.0 0.00 0.03 0.03 63 1022.0
20210722184351 28 216 1.6 8.0 0.00 0.03 0.03 67 1022.0
20210722183846 28 202 4.8 8.0 0.00 0.03 0.03 64 1022.1
20210722183341 28 96 1.6 6.4 0.00 0.03 0.03 63 1022.2
20210722182839 28 106 3.2 4.8 0.00 0.03 0.03 63 1022.1
20210722182354 28 194 1.6 6.4 0.00 0.03 0.03 66 1022.2
20210722181848 28 140 3.2 9.7 0.00 0.03 0.03 65 1022.3
20210722181344 28 133 6.4 9.7 0.00 0.03 0.03 66 1022.2
20210722180839 28 207 3.2 9.7 0.00 0.03 0.03 66 1022.3
20210722180335 28 223 3.2 9.7 0.00 0.03 0.03 65 1022.3
20210722175849 28 215 3.2 11.3 0.00 0.03 0.03 65 1022.4
20210722175344 28 171 4.8 9.7 0.00 0.03 0.03 68 1022.4
20210722174844 28 109 4.8 9.7 0.00 0.03 0.03 69 1022.4
20210722174337 27 114 4.8 9.7 0.00 0.03 0.03 66 1022.4
20210722173853 27 214 1.6 8.0 0.00 0.03 0.03 72 1022.5
20210722173348 28 219 4.8 8.0 0.00 0.03 0.03 71 1022.5
20210722172841 28 105 1.6 6.4 0.00 0.03 0.03 72 1022.6
20210722172337 28 219 3.2 9.7 0.00 0.03 0.03 69 1022.6
20210722171853 28 209 3.2 16.1 0.00 0.03 0.03 73 1022.7
20210722171352 27 241 4.8 16.1 0.00 0.03 0.03 72 1022.8
20210722170847 27 240 6.4 12.9 0.00 0.03 0.03 70 1022.9
20210722170342 27 229 8.0 12.9 0.00 0.03 0.03 73 1022.8
20210722165837 27 198 4.8 8.0 0.00 0.03 0.03 72 1022.9
20210722165351 27 106 3.2 12.9 0.00 0.03 0.03 73 1022.8
20210722164846 27 99 4.8 11.3 0.00 0.03 0.03 73 1022.9
20210722164339 27 98 4.8 8.0 0.00 0.03 0.03 73 1022.9
20210722163838 27 171 3.2 17.7 0.00 0.03 0.03 73 1022.9
20210722163353 27 190 6.4 17.7 0.00 0.03 0.03 73 1022.9
20210722162846 27 227 4.8 11.3 0.00 0.03 0.03 74 1023.0
20210722162342 27 221 6.4 11.3 0.00 0.03 0.03 75 1023.0
20210722161837 27 225 4.8 9.7 0.00 0.03 0.03 77 1022.9
20210722161352 27 221 3.2 11.3 0.00 0.03 0.03 79 1023.0
20210722160846 26 229 4.8 12.9 0.00 0.03 0.03 75 1023.0
20210722160340 26 150 3.2 8.0 0.00 0.03 0.03 76 1023.1
20210722155839 26 121 4.8 9.7 0.00 0.03 0.03 77 1023.0
20210722155353 26 136 4.8 9.7 0.00 0.03 0.03 77 1023.0
20210722154848 26 215 4.8 11.3 0.00 0.03 0.03 79 1023.0
20210722154343 26 100 4.8 9.7 0.00 0.03 0.03 78 1023.0